[[{"header":{"parameterUnit":"m.s-1","parameterCategory":1,"la1":30.2991,"la2":30.254,"lo1":-89.0895,"lo2":-89.0444,"dy":0.0017,"dx":0.0017,"nx":28,"ny":28,"refTime":"2025-07-17T09:00:00:Z","depth":0,"parameterNumber":2,"parameterNumberName":"U-component_of_WINDS"},"data":[0,0,0,0,0,0,0,0,0,0,0,0,0,0,0,0,0,0,0,0,0,0,0,0,0,0,0,0,0,0,0,0,0,0,0,0,0,0,0,0,0,0,0,0,0,0,0,0,0,0,0,0,0,0,0,0,0,0,-2.3181,-2.3185,0,-2.359,-2.3595,-2.36,-2.3798,-2.3798,-2.3798,-2.3797,-2.4222,-2.4233,-2.4245,0,0,0,0,0,0,0,0,0,0,0,0,0,-2.2572,-2.2582,-2.318,-2.3185,-2.3191,-2.3589,-2.3595,-2.3601,-2.3798,-2.3798,-2.3798,-2.3797,-2.4219,-2.4232,-2.4246,0,0,0,0,0,0,0,0,0,0,0,0,0,-2.2894,-2.2585,-2.3179,-2.3337,-2.3355,-2.3588,-2.3595,-2.3602,-2.3798,-2.3798,-2.3797,-2.3797,-2.4214,-2.4231,-2.4248,-2.4357,0,0,-2.43,-2.4307,0,0,0,0,0,0,0,0,-2.2876,-2.2916,-2.3309,-2.3326,-2.3347,-2.3643,-2.3537,-2.3856,-2.3798,-2.363,-2.3797,-2.3797,-2.403,-2.4062,-2.414,-2.4377,-2.4395,-2.4302,-2.4312,-2.4319,-2.4324,0,0,0,0,0,0,0,-2.2853,-2.29,-2.3343,-2.3314,-2.3338,-2.3388,-2.3434,-2.3598,-2.3826,-2.3645,-2.366,-2.3705,-2.4041,-2.4123,-2.4151,-2.4402,-2.4301,-2.4316,-2.4327,-2.4334,-2.4748,-2.4749,0,0,0,0,0,0,-2.2805,-2.288,-2.333,-2.3355,-2.3106,-2.3399,-2.345,-2.3548,-2.3825,-2.3867,-2.3705,-2.3713,-2.4093,-2.4131,-2.4167,-2.4313,-2.4319,-2.4335,-2.4345,-2.4747,-2.4748,-2.4749,0,0,0,0,0,0,-2.2791,-2.2843,-2.3313,-2.3122,-2.3186,-2.341,-2.3518,-2.3556,-2.3639,-2.3871,-2.3913,-2.3747,-2.4095,-2.4143,-2.4308,-2.433,-2.4343,-2.4359,-2.4746,-2.4748,-2.4749,-2.4605,0,0,0,0,0,0,-2.2772,-2.2837,-2.288,-2.3121,-2.3195,-2.3446,-2.352,-2.3564,-2.3667,-2.3681,-2.3921,-2.3961,-2.4098,-2.4281,-2.4325,-2.4354,-2.4372,-2.4746,-2.4747,-2.4748,-2.4609,-2.4601,-2.4595,0,0,0,0,0,-2.275,-2.2825,-2.2881,-2.2934,-2.3254,-2.3447,-2.3489,-2.3645,-2.3668,-2.3714,-2.3862,-2.3953,-2.432,-2.4296,-2.4347,-2.4382,-2.4745,-2.4747,-2.4748,-2.4612,-2.4603,-2.4595,0,0,0,0,0,0,-2.2583,-2.286,-2.2925,-2.308,-2.3238,-2.348,-2.3543,-2.363,-2.3786,-2.3794,-2.3981,-2.4034,-2.4182,-2.4299,-2.4267,-2.4502,-2.4541,-2.4553,-2.442,-2.4413,-2.4406,-2.4376,-2.4386,0,0,0,0,0,-2.2564,-2.2696,-2.2931,-2.3045,-2.3121,-2.3317,-2.3407,-2.3513,-2.3685,-2.3754,-2.3915,-2.4079,-2.4232,-2.4329,-2.4483,-2.4626,-2.4681,-2.4675,-2.4668,-2.4661,-2.467,-2.4753,-2.4753,-2.4754,-2.4754,-2.4754,0,0,-2.2527,-2.2694,-2.2767,-2.3016,-2.3151,-2.3285,-2.3373,-2.3511,-2.3613,-2.3776,-2.3941,-2.4064,-2.426,-2.4414,-2.449,-2.4516,-2.4681,-2.4663,-2.4655,-2.4669,-2.4755,-2.4755,-2.4754,-2.4755,-2.4755,-2.4755,0,0,-2.2528,-2.2667,-2.2777,-2.2909,-2.3111,-2.3241,-2.3266,-2.3495,-2.3582,-2.375,-2.3874,-2.3998,-2.4257,-2.4392,-2.4494,-2.454,-2.463,-2.4585,-2.4549,-2.4628,-2.4628,-2.4629,-2.4646,-2.465,-2.4593,-2.4592,-2.4592,0,-2.2457,-2.2662,-2.2823,-2.2954,-2.3059,-2.3209,-2.3322,-2.3444,-2.3686,-2.3756,-2.378,-2.4107,-2.425,-2.4437,-2.4448,-2.4526,-2.4562,-2.456,-2.4615,-2.4617,-2.4621,-2.4639,-2.4645,-2.4586,-2.4586,-2.4587,-2.4588,0,-2.2564,-2.2704,-2.2769,-2.2996,-2.3109,-2.323,-2.341,-2.3505,-2.3599,-2.3726,-2.3894,-2.407,-2.4261,-2.4313,-2.4408,-2.4513,-2.4523,-2.4578,-2.4622,-2.4611,-2.4632,-2.464,-2.4576,-2.4579,-2.4581,-2.4582,0,0,-2.2476,-2.2787,-2.2808,-2.2912,-2.3144,-2.3256,-2.3383,-2.3568,-2.3645,-2.3806,-2.3918,-2.4132,-2.4184,-2.4299,-2.4411,-2.448,-2.4505,-2.4528,-2.4535,-2.4518,-2.4632,-2.4589,-2.4595,-2.4564,-2.4566,-2.4568,-2.4616,0,-2.2509,-2.2743,-2.2889,-2.3065,-2.3196,-2.3338,-2.3449,-2.3604,-2.3724,-2.3854,-2.3989,-2.4137,-2.4194,-2.4265,-2.434,-2.4486,-2.4531,-2.4484,-2.4672,-2.4676,-2.4619,-2.4606,-2.4562,-2.4599,-2.4625,-2.4626,-2.4627,0,-2.2581,-2.2735,-2.2922,-2.3137,-2.3198,-2.3295,-2.3475,-2.3596,-2.3774,-2.3857,-2.3983,-2.4095,-2.4235,-2.4264,-2.446,-2.4425,-2.451,-2.4593,-2.4598,-2.4624,-2.4652,-2.4631,-2.4614,-2.462,-2.4641,-2.464,-2.4639,0,-2.2497,-2.2752,-2.2897,-2.2981,-2.3236,-2.33,-2.341,-2.3587,-2.3687,-2.3845,-2.3912,-2.4083,-2.4178,-2.4308,-2.4463,-2.447,-2.4643,-2.4686,-2.4717,-2.4713,-2.475,-2.4746,-2.4747,-2.4801,-2.4801,-2.4801,-2.48,0,-2.2521,-2.263,-2.2862,-2.2951,-2.3077,-2.3244,-2.3365,-2.3486,-2.3642,-2.3757,-2.3891,-2.3997,-2.4194,-2.4324,-2.4446,-2.459,-2.4631,-2.4703,-2.4735,-2.4692,-2.4683,-2.4752,-2.4754,-2.4802,-2.4802,-2.4802,-2.4801,0,-2.245,-2.261,-2.2777,-2.3003,-2.3062,-2.3145,-2.3339,-2.3431,-2.3557,-2.3701,-2.3745,-2.3944,-2.4104,-2.427,-2.4487,-2.4569,-2.4708,-2.4751,-2.4648,-2.4666,-2.4688,-2.4683,-2.4735,-2.475,-2.4791,-2.479,-2.479,0,-2.2455,-2.2542,-2.2776,-2.2861,-2.2967,-2.3104,-2.3206,-2.3373,-2.3474,-2.3681,-2.3748,-2.3916,-2.4061,-2.4309,-2.4474,-2.4641,-2.469,-2.4696,-2.4716,-2.467,-2.4691,-2.4684,-2.4693,-2.4689,-2.4688,-2.4687,-2.4686,0,-2.2448,-2.2521,-2.2663,-2.2831,-2.2948,-2.3089,-2.3236,-2.3298,-2.3494,-2.3601,-2.3764,-2.3875,-2.4095,-2.4262,-2.4447,-2.4562,-2.4657,-2.4678,-2.4694,-2.4653,-2.4589,-2.4624,-2.463,-2.4677,-2.4678,-2.4678,-2.4679,-2.4679,-2.2417,-2.25,-2.2676,-2.2829,-2.2955,-2.3088,-2.3184,-2.3321,-2.346,-2.365,-2.374,-2.3903,-2.4078,-2.4336,-2.4447,-2.4578,-2.4606,-2.4629,-2.4636,-2.4639,-2.4628,-2.4566,-2.4613,-2.4613,-2.4614,-2.4614,-2.4614,0,-2.2417,-2.2536,-2.2674,-2.2873,-2.2992,-2.3067,-2.3232,-2.3328,-2.3469,-2.3622,-2.376,-2.3947,-2.4108,-2.4283,-2.4455,-2.4526,-2.4574,-2.4565,-2.4563,-2.4588,-2.4594,-2.4563,-2.4524,-2.4524,-2.4524,-2.4524,-2.4524,-2.4524,-2.2431,-2.2575,-2.2668,-2.2876,-2.2996,-2.3155,-2.3243,-2.3366,-2.3489,-2.369,-2.3824,-2.3936,-2.4098,-2.4282,-2.4433,-2.4481,-2.4538,-2.4517,-2.4577,-2.458,-2.4587,-2.4594,-2.4566,-2.4528,-2.4528,-2.456,-2.456,-2.4561]},{"header":{"parameterUnit":"m.s-1","parameterCategory":1,"la1":30.2991,"la2":30.254,"lo1":-89.0895,"lo2":-89.0444,"dy":0.0017,"dx":0.0017,"nx":28,"ny":28,"refTime":"2025-07-17T09:00:00:Z","depth":0,"parameterNumber":3,"parameterNumberName":"V-component_of_WINDS"},"data":[0,0,0,0,0,0,0,0,0,0,0,0,0,0,0,0,0,0,0,0,0,0,0,0,0,0,0,0,0,0,0,0,0,0,0,0,0,0,0,0,0,0,0,0,0,0,0,0,0,0,0,0,0,0,0,0,0,0,-2.8427,-2.8423,0,-2.8065,-2.8061,-2.8057,-2.7836,-2.7835,-2.7834,-2.7833,-2.7438,-2.7429,-2.7419,0,0,0,0,0,0,0,0,0,0,0,0,0,-2.8902,-2.8895,-2.8427,-2.8422,-2.8418,-2.8066,-2.8061,-2.8056,-2.7836,-2.7835,-2.7834,-2.7833,-2.7441,-2.743,-2.7418,0,0,0,0,0,0,0,0,0,0,0,0,0,-2.8634,-2.8893,-2.8428,-2.8267,-2.8249,-2.8067,-2.8061,-2.8054,-2.7837,-2.7835,-2.7834,-2.7832,-2.7445,-2.7431,-2.7417,-2.7359,0,0,-2.7373,-2.7367,0,0,0,0,0,0,0,0,-2.8649,-2.8616,-2.8295,-2.8277,-2.8257,-2.7995,-2.8083,-2.782,-2.7837,-2.7992,-2.7833,-2.7831,-2.7623,-2.7594,-2.7528,-2.7341,-2.7324,-2.7372,-2.7363,-2.7357,-2.7353,0,0,0,0,0,0,0,-2.8668,-2.863,-2.8283,-2.829,-2.8267,-2.8204,-2.8164,-2.8032,-2.782,-2.7979,-2.7962,-2.7924,-2.7612,-2.7543,-2.7518,-2.7318,-2.7372,-2.7359,-2.735,-2.7345,-2.706,-2.7061,0,0,0,0,0,0,-2.8716,-2.8648,-2.8294,-2.8272,-2.8454,-2.8197,-2.8152,-2.808,-2.7821,-2.778,-2.7925,-2.7915,-2.7568,-2.7535,-2.7503,-2.7417,-2.7357,-2.7343,-2.7335,-2.7059,-2.7061,-2.7062,0,0,0,0,0,0,-2.8727,-2.8686,-2.8309,-2.8455,-2.8403,-2.8191,-2.8111,-2.8074,-2.8005,-2.7781,-2.7739,-2.7896,-2.7566,-2.7523,-2.7398,-2.74,-2.7337,-2.7324,-2.7058,-2.706,-2.7061,-2.7247,0,0,0,0,0,0,-2.8742,-2.8692,-2.8674,-2.8457,-2.8396,-2.8218,-2.8111,-2.8068,-2.7984,-2.7966,-2.7742,-2.7703,-2.7561,-2.742,-2.7384,-2.7379,-2.7313,-2.7057,-2.7059,-2.7061,-2.7239,-2.7255,-2.7268,0,0,0,0,0,-2.8759,-2.8735,-2.8674,-2.8633,-2.837,-2.8219,-2.8183,-2.8028,-2.7985,-2.7961,-2.7817,-2.771,-2.7407,-2.7409,-2.7366,-2.7358,-2.7056,-2.7058,-2.7061,-2.7233,-2.7252,-2.7267,0,0,0,0,0,0,-2.8949,-2.8704,-2.8633,-2.854,-2.8404,-2.8183,-2.8148,-2.8052,-2.7918,-2.7906,-2.7711,-2.7662,-2.7555,-2.7442,-2.7451,-2.7286,-2.7218,-2.7212,-2.7365,-2.738,-2.7394,-2.7422,-2.7301,0,0,0,0,0,-2.8982,-2.8888,-2.8675,-2.8613,-2.8549,-2.8362,-2.8289,-2.8182,-2.8029,-2.7967,-2.7813,-2.7662,-2.7531,-2.7449,-2.7317,-2.7222,-2.7167,-2.7194,-2.7208,-2.7221,-2.7217,-2.7155,-2.7164,-2.707,-2.7069,-2.7069,0,0,-2.9045,-2.8899,-2.885,-2.8648,-2.8529,-2.8428,-2.8313,-2.8211,-2.8133,-2.7948,-2.7823,-2.7705,-2.7521,-2.7412,-2.7355,-2.7314,-2.7231,-2.7224,-2.7236,-2.7224,-2.7158,-2.7168,-2.7176,-2.7071,-2.7071,-2.7071,0,0,-2.9109,-2.8992,-2.8928,-2.8813,-2.8638,-2.8513,-2.8498,-2.8291,-2.8209,-2.8082,-2.7941,-2.7839,-2.762,-2.7496,-2.7403,-2.7422,-2.7316,-2.7383,-2.7455,-2.7397,-2.7405,-2.741,-2.7414,-2.7418,-2.738,-2.738,-2.7381,0,-2.9208,-2.906,-2.8904,-2.8812,-2.8725,-2.8562,-2.8491,-2.8383,-2.8171,-2.811,-2.807,-2.7793,-2.7657,-2.7515,-2.752,-2.7451,-2.7422,-2.7407,-2.7418,-2.7422,-2.7424,-2.7425,-2.7428,-2.739,-2.7389,-2.7388,-2.7387,0,-2.9188,-2.9087,-2.9054,-2.8863,-2.8771,-2.869,-2.8515,-2.8439,-2.8339,-2.8217,-2.8086,-2.7919,-2.775,-2.7708,-2.7606,-2.7549,-2.753,-2.7457,-2.7384,-2.7446,-2.7443,-2.7442,-2.7403,-2.74,-2.7397,-2.7395,0,0,-2.936,-2.9088,-2.9078,-2.8989,-2.8784,-2.8698,-2.8606,-2.845,-2.8387,-2.8244,-2.8158,-2.7978,-2.7909,-2.7805,-2.7687,-2.7637,-2.7658,-2.7567,-2.756,-2.7589,-2.7581,-2.7638,-2.7641,-2.7589,-2.7588,-2.7588,-2.7596,0,-2.9393,-2.9232,-2.9089,-2.8975,-2.8877,-2.8721,-2.864,-2.8501,-2.8384,-2.8276,-2.8141,-2.8017,-2.7937,-2.7872,-2.7816,-2.7669,-2.7654,-2.7666,-2.7499,-2.7495,-2.7551,-2.764,-2.7699,-2.7715,-2.7594,-2.7594,-2.7594,0,-2.941,-2.9285,-2.9165,-2.8971,-2.8923,-2.8855,-2.8699,-2.8601,-2.8437,-2.8354,-2.824,-2.8118,-2.8005,-2.7947,-2.7785,-2.7797,-2.7719,-2.7636,-2.7632,-2.7609,-2.7548,-2.7617,-2.7716,-2.7719,-2.7591,-2.7591,-2.7591,0,-2.9547,-2.9346,-2.9249,-2.9177,-2.8948,-2.8903,-2.8803,-2.8639,-2.8554,-2.8414,-2.8355,-2.8201,-2.8116,-2.7996,-2.7832,-2.7805,-2.7686,-2.7614,-2.7608,-2.7613,-2.7589,-2.7593,-2.7676,-2.7543,-2.7543,-2.7543,-2.7543,0,-2.9598,-2.953,-2.9308,-2.9247,-2.9164,-2.8997,-2.8916,-2.8801,-2.8657,-2.8565,-2.8417,-2.8332,-2.8123,-2.801,-2.788,-2.7764,-2.7726,-2.7651,-2.7617,-2.7664,-2.7673,-2.7609,-2.7603,-2.7543,-2.7543,-2.7543,-2.7543,0,-2.9736,-2.9585,-2.9468,-2.9263,-2.9209,-2.9157,-2.8977,-2.8907,-2.8783,-2.8669,-2.8631,-2.8432,-2.8292,-2.8119,-2.7919,-2.7832,-2.7728,-2.7677,-2.7787,-2.7767,-2.7771,-2.7772,-2.7814,-2.7809,-2.7684,-2.7685,-2.7687,0,-2.9778,-2.9723,-2.9515,-2.9448,-2.9356,-2.9249,-2.9163,-2.8994,-2.8909,-2.8719,-2.8672,-2.8523,-2.8394,-2.8175,-2.8007,-2.7853,-2.7796,-2.7821,-2.7771,-2.782,-2.7793,-2.7799,-2.779,-2.7834,-2.7836,-2.7838,-2.7839,0,-2.9868,-2.9797,-2.9685,-2.9546,-2.9451,-2.9331,-2.9203,-2.9154,-2.8956,-2.8867,-2.8728,-2.8629,-2.843,-2.8281,-2.8106,-2.7992,-2.788,-2.7858,-2.7847,-2.7894,-2.7959,-2.7922,-2.7821,-2.7856,-2.7855,-2.7853,-2.7852,-2.7852,-2.9956,-2.9901,-2.9748,-2.9626,-2.9515,-2.9399,-2.9326,-2.9195,-2.9079,-2.8911,-2.8815,-2.8677,-2.8508,-2.8264,-2.8156,-2.8039,-2.7998,-2.7984,-2.798,-2.7979,-2.7993,-2.7981,-2.8006,-2.8005,-2.8004,-2.8004,-2.8003,0,-3.0038,-2.9933,-2.9824,-2.9655,-2.9558,-2.9472,-2.9326,-2.9247,-2.9132,-2.899,-2.8869,-2.8706,-2.8561,-2.8383,-2.8224,-2.8164,-2.8108,-2.8127,-2.8129,-2.8103,-2.8039,-2.8063,-2.8175,-2.8175,-2.8175,-2.8175,-2.8175,-2.8175,-3.0069,-2.997,-2.9881,-2.9723,-2.9613,-2.9486,-2.941,-2.9299,-2.9186,-2.9015,-2.8897,-2.8786,-2.8626,-2.8454,-2.8315,-2.8265,-2.8211,-2.8246,-2.8181,-2.8123,-2.8108,-2.8094,-2.8116,-2.8237,-2.8237,-2.8254,-2.8254,-2.8254]}]]